Terug naar catalogus

STARLINK-11487

ActiefCommunicatieVLEO
NORAD 62278·PAYLOAD·🇺🇸 United States

Gelanceerd Dec 8, 2024 vanaf Cape Canaveral Space Force Station

Loading…

Volgende Passages (komende 24 uur)

TLE

VersSource: CelesTrak SupGP

Epoch: Sep 15, 2026, 02:07 UTC

1 62278C 24237M   26258.08868056 -.00080909  00000+0 -62843-3 0  2588
2 62278  43.0007 355.4570 0001747 266.5080 120.9718 15.70877649    19

Volg STARLINK-11487 in realtime met AllMySat

Download on the App Store